User: anonymous   Login
Location: Kunchanapalle
(16.4623°N, 80.6176°E)
Time: 17:59:10
(UTC+00:00)
Language:

Cosmos 1400 Rocket - Orbit

View from above orbital plane
View from above orbital plane
View from above satellite
View from above satellite

Ground track
Ground track

The orbit data is extracted from the following two-line orbital elements,

1 13403U 82079B   20298.46343520 -.00000114  00000-0 -90802-5 0  9997
2 13403  81.1671 305.1452 0033602 195.1282 164.8940 15.07231003 81259
Epoch (UTC): 24 October 2020 11:07:20
Eccentricity: 0.0033602
inclination: 81.1671°
perigee height: 521 km
apogee height: 568 km
right ascension of ascending node: 305.1452°
argument of perigee: 195.1282°
revolutions per day: 15.07231003
mean anomaly at epoch: 164.8940°
orbit number at epoch: 8125

The dashed part of the orbit path shows where the satellite is in the earth's shadow,  

DLR